Location: Bremen
(53.0793°N, 8.8017°E)
Time: 20:29:24
(UTC+01:00)

S-56A Canister/Altair - Pass Details

Date: 04 December 2021
Orbit: 634 x 2499 km, 38.9° (Epoch: 26 January)

Event Time Altitude Azimuth Distance (km) Brightness Sun altitude
Rises 00:09:56 0° 219° (SW) 5,128 - -59.1°
Reaches altitude 10° 00:14:49 10° 205° (SSW) 3,758 - -59.2°
Maximum altitude 00:20:49 19° 164° (SSE) 2,614 - -59.1°
Drops below altitude 10° 00:25:32 10° 121° (ESE) 2,856 - -59.1°
Sets 00:28:35 0° 104° (ESE) 3,555 - -59.0°
